{"data":{"norad_id":68068,"epoch":"2026-05-25T01:45:16.984800Z","epoch_age_seconds":62542,"freshness":"FRESH","line1":"1 68068U 26041AE  26145.07311325  .00028501  00000+0  85149-3 0  9996","line2":"2 68068  53.1602  55.0236 0001027  73.2862 286.8253 15.34399264 13088","mean_motion":15.34399264,"eccentricity":0.0001027,"inclination_deg":53.1602,"raan_deg":55.0236,"arg_perigee_deg":73.2862,"mean_anomaly_deg":286.8253,"bstar":0.00085149,"rev_number":1308,"period_min":93.847803096965,"perigee_km":462.00287323775,"apogee_km":463.40798227241,"semimajor_km":6840.8424277551,"source":"CELESTRAK","updated_at":"2026-05-25T13:38:21.816616Z"}}